DELTA 1 DEB, 14528

Orbit data source: Space-Track

DELTA 1 DEB, 14528 is space debris in LEO originally from a launch on Thu, 14 Jul 1977 UTC launched from the Air Force Eastern Test Range (AFETR). Debris objects in space refer to the collection of defunct objects orbiting the Earth. Examples of debris include non-operational satellites, rocket bodies, and fragments generated from explosions, collisions, or faulty payload assembly.

Loading next visibility...
Identifier
14528, 1977-065FP
Orbit
LEO
Country
Flag of USUS
Related business
Manufacturer
Unknown
Mission
Spacecraft
Bus & Motor
Unknown
Mass
Unknown
Launch date (UTC)
1977-07-14 (49 years ago)
Launch vehicle
Unknown
Launch site
Air Force Eastern Test Range (AFETR)
Object type
Payload
Rocket body
Debris
Shape & HBR
Unknown shape, 0.1 m
Radar Cross Section
Small (<0.1 m²)

Expand to show TLE details & history
Last TLE update: 2 days ago

TLE from 2 days ago
0 DELTA 1 DEB
1 14528U 77065FP  26131.68965308  .00000146  00000-0  47326-3 0  9999
2 14528  28.0744 261.0855 0315548  54.7702 308.1931 12.46601709571537
Epoch: 2026-05-11T16:33Z
TLE epoch observation values (Epoch: 2026-05-11T16:33:06.026Z)
Latitude
0.00004°
Longitude
143.3357°
Altitude
1,328.897 km
Speed
7.262 km/s
True Right ascension
17h 24m 20s
True Declination
0° 00' 00"
Sunlit
Object was in full shadow at epoch
Visualization orbit readout
Latitude
Unknown
Longitude
Unknown
Altitude
Unknown
Speed
Unknown
Apparent Right ascension
Unknown
Apparent Declination
Unknown
Sunlit
N/A
Visualization observer readout
Local Sidereal Time
13:48:28
Azimuth
Unknown
Elevation
Unknown
Doppler factor
Unknown
Orbital elements
Apogee altitude
1,730.537 km
Perigee altitude
1,234.456 km
Semi-major axis
7,860.633 km
Eccentricity
0.03155
Inclination
28.0744°
RAAN
261.0855°
Arg. of periapsis
54.7702°
True anomaly
305.28153°
Mean anomaly
308.1931°
Eccentric anomaly
306.74436°
Mean motion
3.11427 °/min
Orbital period
115.6 mins
BSTAR
0.00047326
Loading maneuver chart data...
Computing Atmospheric mass density...

Documentation

Showing up to 5 results
|